[[{"header":{"parameterUnit":"m.s-1","parameterCategory":1,"la1":30.2991,"la2":30.254,"lo1":-89.0895,"lo2":-89.0444,"dy":0.0017,"dx":0.0017,"nx":28,"ny":28,"refTime":"2026-03-04T09:00:00:Z","depth":0,"parameterNumber":2,"parameterNumberName":"U-component_of_WINDS"},"data":[0,0,0,0,0,0,0,0,0,0,0,0,0,0,0,0,0,0,0,0,0,0,0,0,0,0,0,0,0,0,0,0,0,0,0,0,0,0,0,0,0,0,0,0,0,0,0,0,0,0,0,0,0,0,0,0,0,0,-3.204,-3.2041,0,-3.2053,-3.2053,-3.2053,-3.2006,-3.2004,-3.2003,-3.2001,-3.2015,-3.2016,-3.2018,0,0,0,0,0,0,0,0,0,0,0,0,0,-3.1977,-3.1978,-3.204,-3.2041,-3.2041,-3.2053,-3.2053,-3.2053,-3.2006,-3.2004,-3.2002,-3.2001,-3.2014,-3.2016,-3.2018,0,0,0,0,0,0,0,0,0,0,0,0,0,-3.1999,-3.1979,-3.204,-3.2019,-3.2017,-3.2053,-3.2053,-3.2053,-3.2006,-3.2004,-3.2002,-3.2,-3.2013,-3.2016,-3.2018,-3.2076,0,0,-3.2026,-3.2027,0,0,0,0,0,0,0,0,-3.1997,-3.2001,-3.2022,-3.202,-3.2018,-3.2026,-3.2035,-3.2061,-3.2007,-3.201,-3.2001,-3.1999,-3.202,-3.2022,-3.2029,-3.2077,-3.2077,-3.2026,-3.2028,-3.2029,-3.2029,0,0,0,0,0,0,0,-3.1996,-3.2,-3.2045,-3.2022,-3.202,-3.2009,-3.2009,-3.204,-3.2027,-3.201,-3.2006,-3.2008,-3.2019,-3.2027,-3.2029,-3.2078,-3.2026,-3.2028,-3.203,-3.2031,-3.2175,-3.2177,0,0,0,0,0,0,-3.1997,-3.1999,-3.2045,-3.2046,-3.2002,-3.2011,-3.2012,-3.2025,-3.2026,-3.2025,-3.201,-3.2006,-3.2023,-3.2026,-3.2029,-3.2097,-3.2029,-3.2031,-3.2033,-3.2172,-3.2175,-3.2178,0,0,0,0,0,0,-3.1996,-3.2002,-3.2044,-3.2022,-3.2026,-3.2015,-3.203,-3.2027,-3.2034,-3.2027,-3.2024,-3.2021,-3.2022,-3.2026,-3.2065,-3.2097,-3.2032,-3.2035,-3.217,-3.2173,-3.2176,-3.2233,0,0,0,0,0,0,-3.1994,-3.2002,-3.2023,-3.2022,-3.2028,-3.208,-3.2032,-3.2028,-3.2039,-3.2034,-3.2036,-3.2034,-3.202,-3.2062,-3.2067,-3.2099,-3.2036,-3.2167,-3.2171,-3.2175,-3.2228,-3.2238,-3.2246,0,0,0,0,0,-3.1992,-3.2038,-3.2024,-3.203,-3.2054,-3.2082,-3.2085,-3.2068,-3.2042,-3.2063,-3.2059,-3.2034,-3.2093,-3.2066,-3.2072,-3.2105,-3.2165,-3.217,-3.2175,-3.2224,-3.2236,-3.2246,0,0,0,0,0,0,-3.2042,-3.2038,-3.2022,-3.2069,-3.2076,-3.2074,-3.21,-3.2081,-3.2095,-3.209,-3.2069,-3.207,-3.2113,-3.2113,-3.2083,-3.2162,-3.2124,-3.2131,-3.2159,-3.2171,-3.2179,-3.2178,-3.2039,0,0,0,0,0,-3.2059,-3.2082,-3.2077,-3.2119,-3.2123,-3.2111,-3.2123,-3.2109,-3.2116,-3.2118,-3.2116,-3.2124,-3.2144,-3.2158,-3.2176,-3.2229,-3.2229,-3.2255,-3.2264,-3.2271,-3.2277,-3.2305,-3.2317,-3.2195,-3.2195,-3.2195,0,0,-3.2093,-3.2094,-3.2109,-3.2129,-3.2133,-3.2157,-3.2114,-3.2141,-3.2159,-3.2123,-3.2159,-3.2159,-3.2166,-3.2212,-3.2233,-3.2214,-3.2311,-3.2278,-3.2284,-3.2285,-3.2312,-3.2323,-3.2333,-3.2198,-3.2198,-3.2197,0,0,-3.2168,-3.2171,-3.2206,-3.2211,-3.2218,-3.221,-3.2219,-3.222,-3.2218,-3.2255,-3.2228,-3.2249,-3.2284,-3.2291,-3.2298,-3.2378,-3.2356,-3.2385,-3.2431,-3.2459,-3.2469,-3.2477,-3.2505,-3.2515,-3.2391,-3.2391,-3.2391,0,-3.2209,-3.2244,-3.2227,-3.2256,-3.2266,-3.2235,-3.2271,-3.2277,-3.2289,-3.2297,-3.2276,-3.2319,-3.2322,-3.237,-3.2389,-3.2397,-3.2406,-3.2383,-3.2469,-3.2477,-3.2485,-3.2511,-3.2522,-3.2394,-3.2394,-3.2393,-3.2393,0,-3.2295,-3.232,-3.2348,-3.2361,-3.2374,-3.2407,-3.2395,-3.241,-3.2397,-3.2391,-3.243,-3.2432,-3.245,-3.2461,-3.2448,-3.2508,-3.2496,-3.2472,-3.2434,-3.25,-3.2524,-3.2534,-3.2399,-3.2398,-3.2397,-3.2396,0,0,-3.2399,-3.2403,-3.2414,-3.242,-3.2426,-3.2445,-3.2477,-3.2495,-3.2509,-3.2519,-3.2545,-3.2577,-3.2555,-3.2564,-3.2552,-3.2577,-3.2639,-3.255,-3.255,-3.2566,-3.2705,-3.2722,-3.2734,-3.2626,-3.2628,-3.2629,-3.2705,0,-3.2472,-3.2526,-3.2512,-3.2565,-3.2589,-3.2561,-3.2589,-3.2596,-3.2592,-3.2612,-3.2608,-3.2631,-3.2601,-3.2606,-3.263,-3.2627,-3.2667,-3.2621,-3.265,-3.2651,-3.2647,-3.2747,-3.2764,-3.2835,-3.2714,-3.2716,-3.2717,0,-3.2563,-3.2577,-3.2633,-3.2637,-3.2646,-3.2671,-3.2687,-3.2706,-3.2714,-3.271,-3.2721,-3.2704,-3.2737,-3.27,-3.2744,-3.2713,-3.2725,-3.2725,-3.2728,-3.2728,-3.2687,-3.2749,-3.2857,-3.2867,-3.2732,-3.2731,-3.273,0,-3.2633,-3.2666,-3.2704,-3.271,-3.2715,-3.2733,-3.2736,-3.2742,-3.2754,-3.2769,-3.2777,-3.2795,-3.2805,-3.282,-3.2808,-3.2783,-3.2855,-3.2817,-3.2852,-3.2852,-3.2867,-3.2866,-3.2977,-3.2876,-3.2876,-3.2876,-3.2876,0,-3.2714,-3.2749,-3.2735,-3.2758,-3.2797,-3.2782,-3.2821,-3.2821,-3.2827,-3.285,-3.2828,-3.285,-3.2835,-3.2856,-3.2848,-3.2886,-3.2891,-3.2888,-3.2885,-3.289,-3.289,-3.2895,-3.289,-3.2879,-3.2878,-3.2878,-3.2877,0,-3.2797,-3.2789,-3.2829,-3.2831,-3.2832,-3.2861,-3.2863,-3.2885,-3.2881,-3.291,-3.2916,-3.291,-3.2934,-3.2925,-3.2951,-3.2945,-3.2993,-3.2985,-3.299,-3.2988,-3.3023,-3.302,-3.3141,-3.3156,-3.3047,-3.3048,-3.3049,0,-3.2849,-3.2876,-3.2881,-3.2895,-3.2899,-3.2922,-3.2935,-3.2921,-3.2935,-3.2948,-3.2968,-3.299,-3.3007,-3.3047,-3.3045,-3.3065,-3.3056,-3.3097,-3.3059,-3.3062,-3.3056,-3.3054,-3.3056,-3.3104,-3.3106,-3.3107,-3.3107,0,-3.2942,-3.2937,-3.2956,-3.2974,-3.2989,-3.3003,-3.3014,-3.3027,-3.3014,-3.3031,-3.3056,-3.3069,-3.3096,-3.3118,-3.3136,-3.314,-3.3122,-3.312,-3.3129,-3.3133,-3.3134,-3.3133,-3.301,-3.3117,-3.3116,-3.3115,-3.3115,-3.3114,-3.301,-3.3033,-3.304,-3.3062,-3.307,-3.3081,-3.3102,-3.3101,-3.3121,-3.3141,-3.3133,-3.3161,-3.317,-3.3193,-3.3199,-3.3222,-3.3205,-3.3219,-3.3222,-3.3225,-3.3229,-3.3132,-3.3225,-3.3225,-3.3224,-3.3224,-3.3224,0,-3.3101,-3.3105,-3.3125,-3.3142,-3.316,-3.3142,-3.3154,-3.317,-3.3195,-3.3205,-3.3223,-3.3252,-3.3274,-3.3274,-3.3295,-3.3313,-3.3305,-3.3319,-3.3317,-3.3318,-3.3243,-3.3232,-3.3325,-3.3325,-3.3325,-3.3325,-3.3325,-3.3325,-3.315,-3.3187,-3.3184,-3.3225,-3.3228,-3.3256,-3.3264,-3.3275,-3.3283,-3.3316,-3.3334,-3.3335,-3.3341,-3.3363,-3.3383,-3.3382,-3.339,-3.3407,-3.3404,-3.3333,-3.3323,-3.3313,-3.3303,-3.3409,-3.3409,-3.3477,-3.3477,-3.3478]},{"header":{"parameterUnit":"m.s-1","parameterCategory":1,"la1":30.2991,"la2":30.254,"lo1":-89.0895,"lo2":-89.0444,"dy":0.0017,"dx":0.0017,"nx":28,"ny":28,"refTime":"2026-03-04T09:00:00:Z","depth":0,"parameterNumber":3,"parameterNumberName":"V-component_of_WINDS"},"data":[0,0,0,0,0,0,0,0,0,0,0,0,0,0,0,0,0,0,0,0,0,0,0,0,0,0,0,0,0,0,0,0,0,0,0,0,0,0,0,0,0,0,0,0,0,0,0,0,0,0,0,0,0,0,0,0,0,0,1.4938,1.4938,0,1.4946,1.4946,1.4946,1.4944,1.4944,1.4943,1.4943,1.4949,1.4949,1.495,0,0,0,0,0,0,0,0,0,0,0,0,0,1.4921,1.4921,1.4938,1.4938,1.4939,1.4946,1.4946,1.4946,1.4944,1.4944,1.4943,1.4943,1.4949,1.4949,1.495,0,0,0,0,0,0,0,0,0,0,0,0,0,1.4929,1.4922,1.4938,1.4938,1.4938,1.4946,1.4946,1.4946,1.4944,1.4944,1.4943,1.4943,1.4949,1.4949,1.495,1.4957,0,0,1.4951,1.4951,0,0,0,0,0,0,0,0,1.4928,1.4929,1.4938,1.4938,1.4938,1.4944,1.4942,1.495,1.4944,1.4942,1.4943,1.4943,1.4947,1.4948,1.495,1.4957,1.4958,1.4951,1.4951,1.4951,1.4952,0,0,0,0,0,0,0,1.4928,1.4929,1.4941,1.4938,1.4938,1.4938,1.4939,1.4944,1.4946,1.4942,1.4942,1.4943,1.4947,1.4949,1.495,1.4958,1.4951,1.4951,1.4952,1.4952,1.4975,1.4975,0,0,0,0,0,0,1.4927,1.4928,1.4941,1.4942,1.4933,1.4938,1.4939,1.4942,1.4946,1.4946,1.4943,1.4943,1.4949,1.4949,1.495,1.4961,1.4951,1.4952,1.4952,1.4974,1.4975,1.4975,0,0,0,0,0,0,1.4927,1.4928,1.4941,1.4935,1.4937,1.4939,1.4942,1.4943,1.4945,1.4946,1.4947,1.4945,1.4948,1.4949,1.4956,1.4961,1.4952,1.4952,1.4974,1.4974,1.4975,1.4981,0,0,0,0,0,0,1.4926,1.4928,1.4931,1.4935,1.4937,1.4947,1.4943,1.4943,1.4946,1.4945,1.4948,1.4948,1.4948,1.4956,1.4957,1.4961,1.4953,1.4973,1.4974,1.4975,1.4981,1.4982,1.4983,0,0,0,0,0,1.4926,1.4931,1.4931,1.4933,1.494,1.4947,1.4948,1.4949,1.4946,1.4949,1.4951,1.4948,1.496,1.4956,1.4957,1.4962,1.4973,1.4974,1.4975,1.498,1.4982,1.4983,0,0,0,0,0,0,1.4926,1.4932,1.4932,1.4939,1.4943,1.4947,1.495,1.495,1.4954,1.4953,1.4953,1.4954,1.4961,1.4962,1.4958,1.4971,1.4966,1.4967,1.497,1.4972,1.4973,1.4972,1.4953,0,0,0,0,0,1.4927,1.4933,1.4937,1.4943,1.4945,1.4948,1.495,1.4951,1.4954,1.4956,1.4958,1.4961,1.4966,1.4969,1.4973,1.4981,1.4982,1.4985,1.4986,1.4987,1.4988,1.4995,1.4997,1.4978,1.4978,1.4978,0,0,1.4929,1.4933,1.4936,1.4943,1.4946,1.4952,1.4949,1.4954,1.4959,1.4956,1.4963,1.4965,1.4969,1.4977,1.4981,1.4978,1.4994,1.4988,1.4989,1.4989,1.4996,1.4998,1.4999,1.4978,1.4978,1.4978,0,0,1.4936,1.4939,1.4945,1.4949,1.4954,1.4956,1.4958,1.4963,1.4964,1.4972,1.4971,1.4976,1.4984,1.4987,1.499,1.5001,1.5,1.5003,1.5009,1.5015,1.5017,1.5018,1.5024,1.5025,1.5004,1.5004,1.5004,0,1.4937,1.4946,1.4948,1.4955,1.4959,1.4959,1.4966,1.4969,1.4975,1.4978,1.4975,1.4987,1.4989,1.4999,1.5002,1.5004,1.5007,1.5002,1.5017,1.5018,1.5019,1.5024,1.5026,1.5004,1.5004,1.5004,1.5004,0,1.4948,1.4955,1.4959,1.4967,1.4972,1.4978,1.4982,1.4986,1.4987,1.4989,1.4998,1.5001,1.5007,1.501,1.5009,1.502,1.5019,1.5017,1.5012,1.5021,1.5026,1.5028,1.5005,1.5004,1.5004,1.5004,0,0,1.4953,1.4965,1.4966,1.4971,1.4978,1.4983,1.4991,1.4998,1.5003,1.5007,1.5014,1.5022,1.5021,1.5024,1.5025,1.503,1.5041,1.5027,1.5028,1.5031,1.5056,1.5058,1.506,1.5041,1.5041,1.5041,1.5056,0,1.4961,1.4975,1.4979,1.499,1.4998,1.4999,1.5006,1.5011,1.5015,1.5021,1.5024,1.503,1.5027,1.503,1.5035,1.5039,1.5046,1.5038,1.5047,1.5048,1.5047,1.5062,1.5064,1.5078,1.5058,1.5058,1.5058,0,1.4972,1.4979,1.4992,1.5002,1.5005,1.5011,1.5019,1.5025,1.5032,1.5034,1.5039,1.504,1.5049,1.5044,1.5056,1.5051,1.5055,1.5058,1.5058,1.5059,1.5054,1.5065,1.5082,1.5084,1.5061,1.5061,1.506,0,1.4976,1.4989,1.4999,1.5003,1.5013,1.5018,1.5023,1.503,1.5035,1.5042,1.5046,1.5053,1.5058,1.5064,1.5067,1.5063,1.508,1.5075,1.5082,1.5082,1.5085,1.5085,1.5104,1.5087,1.5087,1.5087,1.5087,0,1.4985,1.4993,1.5002,1.5008,1.5018,1.5022,1.5032,1.5036,1.5043,1.5051,1.5052,1.5059,1.5063,1.507,1.5073,1.5084,1.5085,1.5088,1.5088,1.5088,1.5088,1.5091,1.509,1.5088,1.5088,1.5088,1.5087,0,1.499,1.4996,1.5008,1.5018,1.5021,1.5028,1.5037,1.5043,1.5048,1.5057,1.506,1.5066,1.5076,1.508,1.5091,1.5093,1.5106,1.5105,1.5104,1.5104,1.5112,1.5112,1.5134,1.5138,1.5118,1.5118,1.5118,0,1.4996,1.5002,1.5014,1.502,1.5026,1.5035,1.5041,1.5046,1.5052,1.5063,1.5068,1.5078,1.5086,1.5102,1.5107,1.5117,1.5117,1.5124,1.5118,1.5118,1.5118,1.5118,1.512,1.5125,1.5125,1.5125,1.5126,0,1.5005,1.5009,1.5018,1.5029,1.5037,1.5045,1.5053,1.5058,1.5065,1.5072,1.5083,1.5089,1.5102,1.5113,1.5123,1.5127,1.5128,1.5128,1.513,1.513,1.5129,1.5131,1.5108,1.5127,1.5127,1.5127,1.5127,1.5127,1.5011,1.5018,1.5029,1.504,1.5047,1.5056,1.5063,1.507,1.5079,1.5091,1.5094,1.5106,1.5115,1.5129,1.5134,1.5144,1.5142,1.5145,1.5146,1.5147,1.5148,1.5128,1.5145,1.5145,1.5145,1.5145,1.5145,0,1.5022,1.5029,1.5039,1.5052,1.5062,1.5063,1.5073,1.508,1.5091,1.51,1.5109,1.5123,1.5134,1.5141,1.5153,1.5159,1.516,1.5162,1.5162,1.5163,1.5148,1.5146,1.5161,1.5161,1.5161,1.5161,1.5161,1.5161,1.5028,1.5041,1.5047,1.5064,1.5071,1.5084,1.509,1.5098,1.5106,1.5122,1.5131,1.5137,1.5146,1.5158,1.5169,1.5171,1.5175,1.5177,1.5179,1.5165,1.5164,1.5162,1.516,1.5178,1.5178,1.5194,1.5194,1.5194]}]]